TAP1439 GMMN-LPPT

Flight info

Callsign TAP1439
Flight time 0h 58m
Altitude 38000
Route LAKAM UR722 AMSEL DCT VATZI
Aircraft A20N/M-SDE2E3FGHIRWXY/LB1

Departure

Time 2026-05-04 23:26
Airport Mohammed V International Airport (GMMN)

Arrival

Time 2026-05-05 00:24
Airport Lisbon Humberto Delgado Airport (LPPT)
Time Latitude Longitude Altitude Speed Heading
2026-05-04 23:12 33.37150 -7.58360 659 ft 0 kts 119°
2026-05-04 23:21 33.37150 -7.58359 656 ft 1 kts 119°
2026-05-04 23:22 33.37133 -7.58316 657 ft 11 kts 110°
2026-05-04 23:22 33.37051 -7.58250 658 ft 19 kts 162°
2026-05-04 23:22 33.36929 -7.58296 657 ft 25 kts 256°
2026-05-04 23:22 33.36846 -7.58467 657 ft 18 kts 180°
2026-05-04 23:23 33.36703 -7.58414 658 ft 29 kts 163°
2026-05-04 23:23 33.36486 -7.58338 658 ft 38 kts 163°
2026-05-04 23:23 33.36228 -7.58249 659 ft 38 kts 163°
2026-05-04 23:23 33.35984 -7.58167 655 ft 31 kts 165°
2026-05-04 23:24 33.35803 -7.58107 656 ft 27 kts 163°
2026-05-04 23:24 33.35629 -7.58042 658 ft 26 kts 162°
2026-05-04 23:24 33.35574 -7.58041 660 ft 1 kts 259°
2026-05-04 23:24 33.35566 -7.58099 655 ft 14 kts 252°
2026-05-04 23:25 33.35542 -7.58238 654 ft 18 kts 255°
2026-05-04 23:25 33.35553 -7.58376 649 ft 15 kts 341°
2026-05-04 23:25 33.35733 -7.58437 648 ft 56 kts 344°
2026-05-04 23:25 33.36320 -7.58638 657 ft 117 kts 344°
2026-05-04 23:26 33.37237 -7.58964 905 ft 135 kts 345°
2026-05-04 23:26 33.38088 -7.59312 1659 ft 133 kts 342°
2026-05-04 23:26 33.39030 -7.59681 2014 ft 153 kts 347°
2026-05-04 23:26 33.40010 -7.60355 2441 ft 182 kts 316°
2026-05-04 23:27 33.40582 -7.61190 2629 ft 209 kts 312°
2026-05-04 23:27 33.41812 -7.63220 3481 ft 234 kts 307°
2026-05-04 23:27 33.42775 -7.64830 4378 ft 239 kts 307°
2026-05-04 23:27 33.43425 -7.65895 5076 ft 240 kts 307°
2026-05-04 23:28 33.44738 -7.68013 6440 ft 240 kts 306°
2026-05-04 23:28 33.45747 -7.69622 7377 ft 243 kts 306°
2026-05-04 23:28 33.46776 -7.71249 8329 ft 247 kts 304°
2026-05-04 23:28 33.47478 -7.72356 9010 ft 248 kts 304°
2026-05-04 23:29 33.48878 -7.74565 10187 ft 255 kts 304°
2026-05-04 23:29 33.49606 -7.75715 10729 ft 258 kts 304°
2026-05-04 23:29 33.50698 -7.77435 11601 ft 260 kts 304°
2026-05-04 23:29 33.51787 -7.79151 12454 ft 263 kts 304°
2026-05-04 23:30 33.52905 -7.80912 13309 ft 267 kts 304°
2026-05-04 23:30 33.54038 -7.82697 14130 ft 270 kts 304°
2026-05-04 23:30 33.55181 -7.84499 14927 ft 272 kts 303°
2026-05-04 23:30 33.56332 -7.86316 15724 ft 274 kts 303°
2026-05-04 23:31 33.57531 -7.88109 16529 ft 279 kts 311°
2026-05-04 23:31 33.59223 -7.89311 17247 ft 297 kts 340°
2026-05-04 23:31 33.61380 -7.89401 17606 ft 328 kts
2026-05-04 23:31 33.63659 -7.88749 17898 ft 351 kts 10°
2026-05-04 23:32 33.66078 -7.87964 18200 ft 369 kts 10°
2026-05-04 23:32 33.68615 -7.87189 18654 ft 380 kts
2026-05-04 23:32 33.71205 -7.86443 19260 ft 385 kts
2026-05-04 23:32 33.73828 -7.85717 19890 ft 389 kts
2026-05-04 23:33 33.76476 -7.85001 20527 ft 393 kts
2026-05-04 23:33 33.79158 -7.84286 21151 ft 397 kts
2026-05-04 23:33 33.81875 -7.83566 21769 ft 401 kts
2026-05-04 23:33 33.84614 -7.82844 22371 ft 405 kts
2026-05-04 23:34 33.87380 -7.82116 22967 ft 409 kts
2026-05-04 23:34 33.90173 -7.81380 23588 ft 413 kts
2026-05-04 23:34 33.92994 -7.80638 24088 ft 417 kts
2026-05-04 23:34 33.95836 -7.79888 24606 ft 419 kts
2026-05-04 23:35 33.98701 -7.79133 25161 ft 421 kts
2026-05-04 23:35 34.01576 -7.78374 25672 ft 424 kts
2026-05-04 23:35 34.04460 -7.77613 26158 ft 426 kts
2026-05-04 23:35 34.07374 -7.76843 26629 ft 429 kts
2026-05-04 23:36 34.10307 -7.76068 27095 ft 432 kts
2026-05-04 23:36 34.13245 -7.75291 27542 ft 434 kts
2026-05-04 23:36 34.16175 -7.74522 27976 ft 436 kts
2026-05-04 23:36 34.19199 -7.74034 28401 ft 431 kts 355°
2026-05-04 23:37 34.22153 -7.74010 28833 ft 429 kts 351°
2026-05-04 23:37 34.25131 -7.74141 29299 ft 429 kts 349°
2026-05-04 23:37 34.28111 -7.74353 29745 ft 430 kts 348°
2026-05-04 23:37 34.31101 -7.74597 30141 ft 432 kts 347°
2026-05-04 23:38 34.34108 -7.74847 30452 ft 435 kts 348°
2026-05-04 23:38 34.37148 -7.75091 30740 ft 439 kts 348°
2026-05-04 23:38 34.40205 -7.75324 31039 ft 442 kts 348°
2026-05-04 23:38 34.43292 -7.75548 31327 ft 445 kts 348°
2026-05-04 23:39 34.46387 -7.75767 31617 ft 448 kts 348°
2026-05-04 23:39 34.49509 -7.75982 32015 ft 448 kts 348°
2026-05-04 23:39 34.52620 -7.76194 32439 ft 447 kts 348°
2026-05-04 23:39 34.55733 -7.76405 32830 ft 447 kts 348°
2026-05-04 23:40 34.58840 -7.76619 33188 ft 447 kts 348°
2026-05-04 23:40 34.61908 -7.76832 33532 ft 448 kts 348°
2026-05-04 23:40 34.65019 -7.77049 33881 ft 448 kts 348°
2026-05-04 23:40 34.68131 -7.77267 34202 ft 448 kts 348°
2026-05-04 23:41 34.71243 -7.77484 34511 ft 448 kts 348°
2026-05-04 23:41 34.74356 -7.77704 34843 ft 446 kts 347°
2026-05-04 23:41 34.77437 -7.77941 35264 ft 443 kts 347°
2026-05-04 23:41 34.80509 -7.78191 35620 ft 441 kts 346°
2026-05-04 23:42 34.83566 -7.78450 35893 ft 440 kts 346°
2026-05-04 23:42 34.86637 -7.78713 36141 ft 441 kts 346°
2026-05-04 23:42 34.89696 -7.78976 36392 ft 441 kts 346°
2026-05-04 23:42 34.92721 -7.79234 36645 ft 441 kts 346°
2026-05-04 23:43 34.95780 -7.79492 36897 ft 440 kts 346°
2026-05-04 23:43 34.98837 -7.79749 37148 ft 440 kts 346°
2026-05-04 23:43 35.01896 -7.80005 37480 ft 439 kts 346°
2026-05-04 23:43 35.04934 -7.80257 37797 ft 437 kts 346°
2026-05-04 23:44 35.07971 -7.80511 38028 ft 437 kts 345°
2026-05-04 23:44 35.11006 -7.80768 38083 ft 439 kts 345°
2026-05-04 23:44 35.17097 -7.81282 38083 ft 437 kts 345°
2026-05-04 23:45 35.23164 -7.81792 38084 ft 437 kts 345°
2026-05-04 23:45 35.29184 -7.82299 38081 ft 435 kts 345°
2026-05-04 23:46 35.35218 -7.82806 38090 ft 433 kts 345°
2026-05-04 23:46 35.41242 -7.83318 38091 ft 433 kts 345°
2026-05-04 23:47 35.47256 -7.83852 38088 ft 433 kts 345°
2026-05-04 23:47 35.53266 -7.84397 38076 ft 433 kts 345°
2026-05-04 23:48 35.59264 -7.84939 38078 ft 432 kts 345°
2026-05-04 23:48 35.65217 -7.85478 38078 ft 432 kts 345°
2026-05-04 23:49 35.71217 -7.86022 38078 ft 432 kts 345°
2026-05-04 23:49 35.77210 -7.86565 38081 ft 432 kts 345°
2026-05-04 23:50 35.83204 -7.87108 38075 ft 432 kts 345°
2026-05-04 23:50 35.89198 -7.87653 38075 ft 432 kts 345°
2026-05-04 23:51 35.95154 -7.88375 38071 ft 422 kts 338°
2026-05-04 23:51 35.97941 -7.89321 38078 ft 409 kts 329°
2026-05-04 23:51 36.00514 -7.90647 38092 ft 405 kts 326°
2026-05-04 23:52 36.05652 -7.93610 38077 ft 405 kts 325°
2026-05-04 23:52 36.10712 -7.96584 38072 ft 405 kts 324°
2026-05-04 23:53 36.15802 -7.99583 38074 ft 405 kts 324°
2026-05-04 23:53 36.20898 -8.02591 38068 ft 405 kts 324°
2026-05-04 23:54 36.25996 -8.05605 38067 ft 406 kts 324°
2026-05-04 23:54 36.31110 -8.08633 38070 ft 408 kts 324°
2026-05-04 23:55 36.36231 -8.11668 38068 ft 408 kts 324°
2026-05-04 23:56 36.43880 -8.16210 38086 ft 408 kts 324°
2026-05-04 23:56 36.48997 -8.19256 38076 ft 408 kts 325°
2026-05-04 23:57 36.54139 -8.22321 38073 ft 411 kts 325°
2026-05-04 23:57 36.59295 -8.25397 38067 ft 411 kts 325°
2026-05-04 23:58 36.64456 -8.28481 38070 ft 411 kts 325°
2026-05-04 23:58 36.69611 -8.31566 38065 ft 411 kts 325°
2026-05-04 23:59 36.74774 -8.34662 38061 ft 412 kts 325°
2026-05-04 23:59 36.79937 -8.37762 38063 ft 412 kts 325°
2026-05-05 00:00 36.85108 -8.40870 38068 ft 412 kts 325°
2026-05-05 00:00 36.90277 -8.43983 38067 ft 412 kts 325°
2026-05-05 00:01 36.95412 -8.47080 38073 ft 413 kts 326°
2026-05-05 00:01 37.00592 -8.50209 38077 ft 413 kts 326°
2026-05-05 00:02 37.05771 -8.53342 38075 ft 413 kts 326°
2026-05-05 00:02 37.10949 -8.56478 38072 ft 413 kts 326°
2026-05-05 00:02 37.13538 -8.58047 37793 ft 411 kts 326°
2026-05-05 00:03 37.16106 -8.59605 37296 ft 409 kts 326°
2026-05-05 00:03 37.18665 -8.61158 36826 ft 406 kts 326°
2026-05-05 00:03 37.21198 -8.62697 36320 ft 404 kts 326°
2026-05-05 00:03 37.23730 -8.64238 35798 ft 403 kts 326°
2026-05-05 00:04 37.26201 -8.65743 35305 ft 402 kts 327°
2026-05-05 00:04 37.28713 -8.67274 34826 ft 400 kts 327°
2026-05-05 00:04 37.31203 -8.68791 34419 ft 396 kts 327°
2026-05-05 00:04 37.33673 -8.70297 34004 ft 392 kts 327°
2026-05-05 00:05 37.36090 -8.71772 33535 ft 389 kts 327°
2026-05-05 00:05 37.38515 -8.73254 33034 ft 386 kts 327°
2026-05-05 00:05 37.40922 -8.74726 32610 ft 382 kts 327°
2026-05-05 00:05 37.43307 -8.76184 32178 ft 378 kts 327°
2026-05-05 00:06 37.45665 -8.77629 31727 ft 375 kts 327°
2026-05-05 00:06 37.48005 -8.79064 31276 ft 373 kts 327°
2026-05-05 00:06 37.50329 -8.80489 30837 ft 370 kts 327°
2026-05-05 00:06 37.52635 -8.81905 30395 ft 367 kts 327°
2026-05-05 00:07 37.54923 -8.83310 29924 ft 365 kts 327°
2026-05-05 00:07 37.57197 -8.84708 29379 ft 363 kts 327°
2026-05-05 00:07 37.59482 -8.86060 28859 ft 363 kts 331°
2026-05-05 00:07 37.61863 -8.87149 28356 ft 364 kts 334°
2026-05-05 00:08 37.64266 -8.88138 27915 ft 362 kts 335°
2026-05-05 00:08 37.66659 -8.89104 27442 ft 360 kts 335°
2026-05-05 00:08 37.68655 -8.89910 27049 ft 358 kts 335°
2026-05-05 00:08 37.71022 -8.90868 26592 ft 356 kts 335°
2026-05-05 00:09 37.73409 -8.91621 26133 ft 361 kts 343°
2026-05-05 00:09 37.75938 -8.91851 25674 ft 369 kts 354°
2026-05-05 00:09 37.78507 -8.91581 25243 ft 371 kts 359°
2026-05-05 00:09 37.81071 -8.91155 24823 ft 370 kts
2026-05-05 00:10 37.83605 -8.90967 24324 ft 363 kts 351°
2026-05-05 00:10 37.86088 -8.91381 23479 ft 359 kts 340°
2026-05-05 00:10 37.88506 -8.92264 22226 ft 364 kts 336°
2026-05-05 00:10 37.90928 -8.93297 21058 ft 370 kts 335°
2026-05-05 00:11 37.93360 -8.94363 20192 ft 368 kts 335°
2026-05-05 00:11 37.95758 -8.95417 19461 ft 362 kts 335°
2026-05-05 00:11 37.98118 -8.96456 18748 ft 356 kts 335°
2026-05-05 00:11 38.00441 -8.97481 18010 ft 351 kts 335°
2026-05-05 00:12 38.02731 -8.98493 17221 ft 346 kts 335°
2026-05-05 00:12 38.04988 -8.99491 16459 ft 341 kts 336°
2026-05-05 00:12 38.07216 -9.00477 15702 ft 337 kts 336°
2026-05-05 00:12 38.09413 -9.01450 14963 ft 332 kts 336°
2026-05-05 00:13 38.11578 -9.02410 14254 ft 328 kts 336°
2026-05-05 00:13 38.13724 -9.03362 13506 ft 324 kts 336°
2026-05-05 00:13 38.15839 -9.04301 12727 ft 320 kts 337°
2026-05-05 00:13 38.17930 -9.05230 11965 ft 317 kts 337°
2026-05-05 00:14 38.20000 -9.06150 11231 ft 314 kts 338°
2026-05-05 00:14 38.22049 -9.07061 10570 ft 309 kts 338°
2026-05-05 00:14 38.24016 -9.07933 10196 ft 296 kts 338°
2026-05-05 00:14 38.25919 -9.08777 9827 ft 284 kts 337°
2026-05-05 00:15 38.27167 -9.09333 9562 ft 279 kts 338°
2026-05-05 00:15 38.28986 -9.10145 9173 ft 276 kts 338°
2026-05-05 00:15 38.30766 -9.10940 8798 ft 274 kts 338°
2026-05-05 00:15 38.32554 -9.11738 8416 ft 271 kts 338°
2026-05-05 00:16 38.34324 -9.12527 8030 ft 269 kts 338°
2026-05-05 00:16 38.36088 -9.13314 7652 ft 268 kts 339°
2026-05-05 00:16 38.37846 -9.14100 7280 ft 266 kts 339°
2026-05-05 00:16 38.39590 -9.14879 6914 ft 264 kts 338°
2026-05-05 00:17 38.41316 -9.15651 6543 ft 261 kts 340°
2026-05-05 00:17 38.43031 -9.16418 6161 ft 261 kts 339°
2026-05-05 00:17 38.44737 -9.17182 5788 ft 260 kts 339°
2026-05-05 00:17 38.46439 -9.17944 5393 ft 257 kts 340°
2026-05-05 00:18 38.48102 -9.18687 5035 ft 254 kts 339°
2026-05-05 00:18 38.49747 -9.19424 4713 ft 245 kts 339°
2026-05-05 00:18 38.51307 -9.20122 4454 ft 231 kts 340°
2026-05-05 00:18 38.52796 -9.20789 4215 ft 223 kts 339°
2026-05-05 00:19 38.54246 -9.21440 3995 ft 217 kts 339°
2026-05-05 00:19 38.55630 -9.22060 3946 ft 203 kts 339°
2026-05-05 00:19 38.56942 -9.22650 3954 ft 200 kts 339°
2026-05-05 00:19 38.58259 -9.23222 3945 ft 201 kts 346°
2026-05-05 00:20 38.59660 -9.23235 3994 ft 199 kts
2026-05-05 00:20 38.60948 -9.22750 3831 ft 190 kts 17°
2026-05-05 00:20 38.62154 -9.22115 3514 ft 184 kts 18°
2026-05-05 00:20 38.63313 -9.21499 3229 ft 179 kts 18°
2026-05-05 00:21 38.64456 -9.20895 2946 ft 181 kts 17°
2026-05-05 00:21 38.65619 -9.20275 2710 ft 180 kts 17°
2026-05-05 00:21 38.66760 -9.19667 2474 ft 177 kts 18°
2026-05-05 00:21 38.67876 -9.19071 2244 ft 168 kts 18°
2026-05-05 00:22 38.68918 -9.18515 2022 ft 157 kts 15°
2026-05-05 00:22 38.69912 -9.17986 1821 ft 154 kts 15°
2026-05-05 00:22 38.70901 -9.17459 1605 ft 153 kts 18°
2026-05-05 00:22 38.71873 -9.16938 1396 ft 148 kts 18°
2026-05-05 00:23 38.72806 -9.16440 1203 ft 142 kts 16°
2026-05-05 00:23 38.73707 -9.15959 1043 ft 140 kts 16°
2026-05-05 00:23 38.74598 -9.15466 825 ft 139 kts 16°
2026-05-05 00:23 38.75504 -9.14974 643 ft 142 kts 18°
2026-05-05 00:24 38.76424 -9.14502 429 ft 143 kts 17°
2026-05-05 00:24 38.77312 -9.14041 365 ft 126 kts 19°
2026-05-05 00:24 38.77954 -9.13692 369 ft 74 kts 24°
2026-05-05 00:24 38.78265 -9.13490 371 ft 36 kts 40°
2026-05-05 00:25 38.78366 -9.13298 369 ft 18 kts 120°
2026-05-05 00:25 38.78288 -9.13285 363 ft 11 kts 200°
2026-05-05 00:25 38.78197 -9.13328 364 ft 15 kts 200°
2026-05-05 00:25 38.78098 -9.13375 362 ft 16 kts 200°
2026-05-05 00:26 38.77998 -9.13403 360 ft 14 kts 170°
2026-05-05 00:26 38.77860 -9.13371 351 ft 23 kts 169°
2026-05-05 00:26 38.77687 -9.13326 349 ft 27 kts 170°
2026-05-05 00:26 38.77504 -9.13301 336 ft 24 kts 169°
2026-05-05 00:27 38.77359 -9.13246 341 ft 13 kts 129°
2026-05-05 00:27 38.77363 -9.13190 339 ft 5 kts 73°
2026-05-05 00:27 38.77372 -9.13138 340 ft 7 kts 78°
2026-05-05 00:27 38.77374 -9.13128 340 ft 0 kts 78°